N2GWK Weather Reports


time (UTC)temp
F
wind
direction
speed
knots
gust
knots
rain 1hr
in
rain 24hr
in
rain mn
in
humidity
%
barometer
mb
20260906112520 70 0.0 0.0 0.00 0.11 0.00 99 1010.6
20260906111523 69 0.0 0.0 0.00 0.11 0.00 99 1010.5
20260906110526 69 0.0 0.0 0.00 0.11 0.00 99 1010.4
20260906105523 69 0.0 0.0 0.00 0.11 0.00 99 1010.3
20260906104520 69 0.0 0.0 0.00 0.11 0.00 99 1010.3
20260906103538 69 0.0 0.0 0.00 0.11 0.00 99 1010.2
20260906102521 70 0.0 0.0 0.00 0.11 0.00 99 1010.2
20260906101525 70 0.0 0.0 0.00 0.11 0.00 99 1010.1
20260906100527 70 0.0 0.0 0.00 0.11 0.00 99 1010.0
20260906095553 70 0.0 0.0 0.00 0.11 0.00 99 1009.9
20260906094528 70 0.0 0.0 0.00 0.11 0.00 99 1010.0
20260906093527 70 0.0 0.0 0.00 0.11 0.00 99 1009.6
20260906092551 70 0.0 0.0 0.00 0.11 0.00 99 1009.6
20260906091533 70 0.0 0.0 0.00 0.11 0.00 99 1009.6
20260906090531 70 0.0 0.0 0.00 0.11 0.00 99 1009.6
20260906085516 70 0.0 0.0 0.00 0.11 0.00 98 1009.4
20260906084519 70 0.0 0.0 0.00 0.11 0.00 98 1009.6
20260906083523 70 0.0 0.0 0.00 0.11 0.00 97 1009.3
20260906082528 70 0.0 0.0 0.00 0.11 0.00 97 1009.3
20260906081525 70 0.0 0.0 0.00 0.11 0.00 97 1009.3
20260906080522 71 0.0 0.0 0.00 0.11 0.00 97 1009.3
20260906075605 71 0.0 0.0 0.00 0.11 0.00 97 1009.5
20260906074528 71 0.0 0.0 0.00 0.11 0.00 96 1009.6
20260906073532 71 0.0 0.0 0.00 0.11 0.00 96 1009.7
20260906072517 71 0.0 0.0 0.00 0.11 0.00 95 1009.7
20260906071520 72 0.0 0.0 0.00 0.11 0.00 95 1009.7
20260906070523 72 0.0 0.0 0.00 0.11 0.00 95 1009.8
20260906065521 72 0.0 0.0 0.00 0.11 0.00 95 1010.0
20260906064519 72 113 0.0 1.7 0.00 0.11 0.00 95 1010.1
20260906063515 72 0.0 0.0 0.00 0.11 0.00 95 1009.9
20260906062519 72 0.0 0.0 0.00 0.11 0.00 95 1010.0
20260906061517 72 75 0.9 1.7 0.00 0.11 0.00 94 1010.0
20260906060520 72 0.0 0.0 0.00 0.11 0.00 94 1010.0
20260906055523 72 225 0.0 0.9 0.00 0.11 0.00 94 1010.1
20260906054522 72 90 0.9 1.7 0.00 0.11 0.00 94 1010.0
20260906053526 73 0.0 0.0 0.00 0.11 0.00 94 1010.1
20260906052609 73 146 1.7 1.7 0.00 0.11 0.00 94 1010.0
20260906051533 73 0.0 0.0 0.00 0.11 0.00 93 1010.0
20260906050537 73 0.0 0.0 0.00 0.11 0.00 92 1010.2
20260906045520 74 0.0 0.0 0.00 0.11 0.00 92 1010.1
20260906044545 74 0.0 0.0 0.00 0.11 0.00 92 1009.9
20260906043529 74 133 0.9 1.7 0.00 0.11 0.00 92 1009.6
20260906042527 74 0.0 0.0 0.00 0.11 0.00 92 1009.5
20260906041526 74 0.0 0.0 0.00 0.11 0.00 90 1009.7
20260906040529 74 0.0 0.0 0.00 0.11 0.00 89 1009.8
20260906035533 74 0.0 0.0 0.00 0.11 0.11 89 1009.9
20260906034519 75 0.0 0.0 0.00 0.11 0.11 88 1009.5
20260906033522 75 0.0 0.0 0.00 0.11 0.11 89 1009.6
20260906032525 75 0.0 0.0 0.00 0.11 0.11 89 1009.6
20260906031529 75 0.0 0.0 0.00 0.11 0.11 89 1009.6
20260906030527 0 0.0 0.0 0.00 0.11 0.11 1009.6
20260906025522 0 0.0 0.0 0.00 0.11 0.11 1009.6
20260906024529 0 0.0 0.0 0.00 0.11 0.11 1009.5
20260906023517 74 0.0 0.0 0.00 0.11 0.11 94 1009.5
20260906022520 74 0.0 0.0 0.00 0.11 0.11 93 1009.6
20260906021523 74 0.0 0.0 0.00 0.11 0.11 94 1009.4
20260906020527 74 0.0 0.0 0.00 0.11 0.11 93 1009.2
20260906015546 74 0.0 0.0 0.00 0.11 0.11 92 1009.0
20260906014528 74 0.0 0.0 0.00 0.11 0.11 92 1008.7
20260906013530 74 0.0 0.0 0.00 0.11 0.11 90 1008.7
20260906012516 74 0.0 0.0 0.00 0.11 0.11 92 1008.5
20260906011612 75 0.0 0.0 0.00 0.11 0.11 89 1008.5
20260906010518 75 0.0 0.0 0.01 0.11 0.11 89 1008.6
20260906005521 75 0.0 0.0 0.01 0.11 0.11 87 1008.5
20260906004525 75 0.0 0.0 0.02 0.11 0.11 87 1008.2
20260906003527 76 120 1.7 2.6 0.03 0.11 0.11 85 1008.7
20260906002532 76 113 0.9 2.6 0.04 0.11 0.11 84 1009.0
20260906001516 77 106 1.7 2.6 0.06 0.11 0.11 83 1009.3
20260906000519 79 256 3.5 6.1 0.05 0.10 0.10 79 1009.6
20260905235519 79 271 3.5 6.1 0.05 0.10 0.10 83 1009.5
20260905234522 81 101 0.9 1.7 0.04 0.09 0.09 81 1009.5
20260905233524 82 68 1.7 2.6 0.03 0.08 0.08 76 1009.3
20260905232547 86 110 2.6 3.5 0.02 0.07 0.07 70 1009.0
20260905231525 95 194 0.9 3.5 0.00 0.05 0.05 55 1008.9
20260905230516 97 90 0.9 1.7 0.00 0.05 0.05 49 1008.7
20260905225519 98 0.0 0.0 0.00 0.05 0.05 47 1008.5
20260905224517 96 142 0.9 1.7 0.00 0.05 0.05 49 1008.8
20260905223601 97 217 2.6 3.5 0.00 0.05 0.05 47 1008.4
20260905222518 97 253 2.6 4.3 0.00 0.05 0.05 47 1008.7
20260905221521 98 158 2.6 4.3 0.00 0.05 0.05 46 1008.7
20260905220545 98 244 1.7 2.6 0.00 0.05 0.05 46 1008.8
20260905215527 99 214 1.7 3.5 0.00 0.05 0.05 45 1009.0
20260905214532 99 165 1.7 1.7 0.00 0.05 0.05 45 1008.9
20260905213517 98 258 2.6 5.2 0.00 0.05 0.05 47 1008.7
20260905212533 97 253 2.6 5.2 0.00 0.05 0.05 48 1008.8
20260905211518 98 178 1.7 2.6 0.00 0.05 0.05 47 1008.8
20260905210521 98 150 1.7 5.2 0.00 0.05 0.05 46 1008.8
20260905205524 98 143 3.5 6.1 0.00 0.05 0.05 46 1008.9
20260905204527 98 194 1.7 3.5 0.00 0.05 0.05 46 1009.0
20260905203527 98 202 2.6 6.1 0.00 0.05 0.05 46 1009.2
20260905202524 99 263 1.7 4.3 0.00 0.05 0.05 46 1009.2
20260905201526 97 222 2.6 3.5 0.00 0.05 0.05 47 1009.3
20260905200525 97 233 2.6 4.3 0.00 0.05 0.05 47 1009.4
20260905195528 97 248 2.6 6.1 0.00 0.05 0.05 47 1009.6
20260905194530 97 222 2.6 5.2 0.00 0.05 0.05 46 1009.9
20260905193516 97 259 4.3 5.2 0.00 0.05 0.05 46 1009.9
20260905192520 97 208 3.5 5.2 0.00 0.05 0.05 47 1010.0
20260905191522 97 237 2.6 3.5 0.00 0.05 0.05 47 1010.0
20260905190559 96 249 1.7 3.5 0.00 0.05 0.05 46 1010.1
20260905185517 97 257 2.6 6.1 0.00 0.05 0.05 47 1010.4
20260905184533 97 246 1.7 5.2 0.00 0.05 0.05 45 1010.5
20260905183545 98 186 1.7 2.6 0.00 0.05 0.05 45 1010.6
20260905182530 97 179 1.7 2.6 0.00 0.05 0.05 44 1010.7
20260905181526 97 106 1.7 2.6 0.00 0.05 0.05 44 1010.8
20260905180519 96 230 1.7 4.3 0.00 0.05 0.05 47 1010.9
20260905175523 96 232 0.9 3.5 0.00 0.05 0.05 46 1011.1
20260905174522 95 205 0.9 1.7 0.00 0.05 0.05 49 1011.1
20260905173525 94 188 0.9 2.6 0.00 0.05 0.05 52 1011.0
20260905172528 94 100 1.7 1.7 0.00 0.05 0.05 48 1011.4
20260905171531 92 247 0.9 1.7 0.00 0.05 0.05 51 1011.5
20260905170516 91 113 1.7 3.5 0.00 0.05 0.05 54 1011.5
20260905165519 90 190 1.7 3.5 0.00 0.05 0.05 57 1011.9
20260905164524 90 113 1.7 2.6 0.00 0.05 0.05 55 1012.0
20260905163525 90 82 1.7 2.6 0.00 0.05 0.05 54 1011.8
20260905162530 89 109 1.7 2.6 0.00 0.05 0.05 59 1012.0
20260905161516 87 203 1.7 2.6 0.00 0.05 0.05 63 1012.0
20260905160527 87 98 1.7 3.5 0.00 0.05 0.05 61 1012.0
20260905155530 86 126 1.7 2.6 0.00 0.05 0.05 64 1012.2
20260905154548 85 167 0.9 1.7 0.00 0.05 0.05 68 1012.3
20260905153531 84 105 1.7 2.6 0.00 0.05 0.05 68 1012.6
20260905152516 83 116 0.9 2.6 0.00 0.05 0.05 73 1012.7
20260905151539 81 99 1.7 3.5 0.00 0.05 0.05 73 1012.6
20260905150523 80 104 1.7 3.5 0.00 0.05 0.05 77 1012.6
20260905145521 78 105 1.7 3.5 0.05 0.05 0.05 82 1012.8
20260905144517 77 113 0.0 1.7 0.05 0.05 0.05 86 1012.8
20260905143532 75 106 0.9 2.6 0.05 0.05 0.05 90 1012.8
20260905142517 74 0.0 0.0 0.05 0.05 0.05 92 1012.9
20260905141613 74 0.0 0.0 0.05 0.05 0.05 90 1012.9
20260905140531 75 103 1.7 2.6 0.05 0.05 0.05 87 1013.0
20260905135516 76 117 2.6 4.3 0.00 0.00 0.00 83 1013.6
20260905134541 78 87 2.6 3.5 0.00 0.00 0.00 80 1013.4
20260905133525 78 167 1.7 3.5 0.00 0.00 0.00 80 1013.1
20260905132528 77 88 1.7 2.6 0.00 0.00 0.00 81 1013.0
20260905131530 76 101 1.7 3.5 0.00 0.00 0.00 84 1013.0
20260905130517 75 72 2.6 3.5 0.00 0.00 0.00 89 1013.2
20260905125532 74 132 0.9 1.7 0.00 0.00 0.00 89 1012.4
20260905124517 74 122 0.9 1.7 0.00 0.00 0.00 90 1012.7
20260905123521 74 0.0 0.0 0.00 0.00 0.00 91 1012.8
20260905122540 74 111 0.0 1.7 0.00 0.00 0.00 91 1012.6
20260905121517 74 0.0 0.0 0.00 0.00 0.00 92 1012.4
20260905120535 73 163 0.9 1.7 0.00 0.00 0.00 95 1012.3
20260905115526 73 144 0.0 1.7 0.00 0.00 0.00 97 1012.3
20260905114530 73 99 0.9 1.7 0.00 0.00 0.00 96 1012.0
20260905113527 73 90 0.0 0.9 0.00 0.00 0.00 97 1011.8